EXS28B EGBB-EDDH

Flight info

Callsign EXS28B
Flight time 1h 16m
Altitude 31000
Route DTY P166 BANTO P155 SOMVA DCT MAVAS DCT GASTU DCT OSTOR T904 RIBSO RIBSO3P
Aircraft B738/M-SDE2E3FGHIRWXY/LB1

Departure

Time 2026-04-26 19:59
Airport Birmingham Airport (EGBB)

Arrival

Time 2026-04-26 21:16
Airport Hamburg Helmut Schmidt Airport (EDDH)
Time Latitude Longitude Altitude Speed Heading
2026-04-26 19:28 52.45037 -1.73321 322 ft 0 kts 326°
2026-04-26 19:45 52.45036 -1.73320 322 ft 1 kts 326°
2026-04-26 19:46 52.45020 -1.73299 321 ft 3 kts 305°
2026-04-26 19:46 52.45011 -1.73266 320 ft 3 kts 272°
2026-04-26 19:46 52.45014 -1.73234 321 ft 2 kts 236°
2026-04-26 19:46 52.45017 -1.73227 320 ft 0 kts 236°
2026-04-26 19:49 52.45015 -1.73232 320 ft 3 kts 236°
2026-04-26 19:49 52.44996 -1.73278 322 ft 5 kts 236°
2026-04-26 19:49 52.44975 -1.73328 322 ft 5 kts 236°
2026-04-26 19:50 52.44955 -1.73378 322 ft 6 kts 236°
2026-04-26 19:50 52.44928 -1.73443 321 ft 8 kts 236°
2026-04-26 19:50 52.44896 -1.73529 322 ft 9 kts 253°
2026-04-26 19:50 52.44921 -1.73615 322 ft 9 kts 321°
2026-04-26 19:51 52.44970 -1.73671 321 ft 8 kts 325°
2026-04-26 19:51 52.45018 -1.73725 322 ft 8 kts 327°
2026-04-26 19:51 52.45070 -1.73758 321 ft 8 kts 348°
2026-04-26 19:51 52.45119 -1.73796 322 ft 8 kts 327°
2026-04-26 19:52 52.45163 -1.73844 322 ft 7 kts 326°
2026-04-26 19:52 52.45206 -1.73891 322 ft 7 kts 326°
2026-04-26 19:52 52.45247 -1.73937 322 ft 7 kts 326°
2026-04-26 19:52 52.45290 -1.73986 322 ft 8 kts 321°
2026-04-26 19:53 52.45318 -1.74058 321 ft 7 kts 296°
2026-04-26 19:53 52.45333 -1.74107 321 ft 8 kts 296°
2026-04-26 19:53 52.45369 -1.74228 322 ft 10 kts 296°
2026-04-26 19:53 52.45404 -1.74341 321 ft 11 kts 297°
2026-04-26 19:54 52.45439 -1.74453 322 ft 11 kts 298°
2026-04-26 19:54 52.45462 -1.74527 321 ft 11 kts 295°
2026-04-26 19:54 52.45511 -1.74613 322 ft 10 kts 324°
2026-04-26 19:54 52.45573 -1.74682 319 ft 12 kts 326°
2026-04-26 19:55 52.45648 -1.74766 315 ft 14 kts 326°
2026-04-26 19:55 52.45738 -1.74866 310 ft 17 kts 326°
2026-04-26 19:55 52.45835 -1.74974 307 ft 17 kts 326°
2026-04-26 19:55 52.45932 -1.75081 306 ft 16 kts 326°
2026-04-26 19:56 52.46025 -1.75185 305 ft 16 kts 326°
2026-04-26 19:56 52.46115 -1.75285 303 ft 15 kts 325°
2026-04-26 19:56 52.46200 -1.75380 301 ft 15 kts 326°
2026-04-26 19:56 52.46282 -1.75470 303 ft 14 kts 326°
2026-04-26 19:57 52.46363 -1.75560 300 ft 15 kts 326°
2026-04-26 19:57 52.46454 -1.75660 302 ft 16 kts 326°
2026-04-26 19:57 52.46544 -1.75761 303 ft 15 kts 326°
2026-04-26 19:57 52.46627 -1.75862 308 ft 14 kts 306°
2026-04-26 19:58 52.46612 -1.75977 306 ft 11 kts 235°
2026-04-26 19:58 52.46566 -1.76073 307 ft 11 kts 215°
2026-04-26 19:58 52.46503 -1.76042 307 ft 10 kts 145°
2026-04-26 19:58 52.46390 -1.75917 310 ft 45 kts 145°
2026-04-26 19:59 52.45944 -1.75422 315 ft 107 kts 146°
2026-04-26 19:59 52.45178 -1.74571 329 ft 157 kts 146°
2026-04-26 19:59 52.44213 -1.73517 796 ft 165 kts 147°
2026-04-26 19:59 52.43262 -1.72527 1559 ft 165 kts 148°
2026-04-26 20:00 52.42260 -1.71463 2074 ft 176 kts 146°
2026-04-26 20:00 52.41198 -1.70280 2474 ft 197 kts 149°
2026-04-26 20:00 52.39882 -1.69478 2799 ft 211 kts 167°
2026-04-26 20:00 52.38431 -1.68932 3294 ft 218 kts 166°
2026-04-26 20:01 52.37025 -1.68065 3965 ft 214 kts 151°
2026-04-26 20:01 52.35752 -1.66727 4470 ft 221 kts 137°
2026-04-26 20:01 52.35014 -1.64546 4952 ft 226 kts 100°
2026-04-26 20:01 52.34764 -1.61990 5503 ft 229 kts 99°
2026-04-26 20:02 52.34512 -1.59419 5978 ft 236 kts 99°
2026-04-26 20:02 52.34101 -1.56684 6080 ft 263 kts 113°
2026-04-26 20:02 52.33154 -1.54005 6510 ft 274 kts 123°
2026-04-26 20:02 52.32477 -1.52287 7151 ft 268 kts 122°
2026-04-26 20:03 52.31253 -1.48645 7941 ft 280 kts 118°
2026-04-26 20:03 52.30332 -1.45846 8611 ft 283 kts 120°
2026-04-26 20:03 52.29359 -1.43015 9294 ft 287 kts 121°
2026-04-26 20:03 52.28355 -1.40164 9962 ft 293 kts 121°
2026-04-26 20:04 52.27294 -1.37182 10140 ft 315 kts 121°
2026-04-26 20:04 52.26232 -1.33933 10445 ft 331 kts 110°
2026-04-26 20:04 52.25912 -1.30242 11001 ft 337 kts 84°
2026-04-26 20:04 52.26275 -1.26462 11693 ft 339 kts 80°
2026-04-26 20:05 52.26689 -1.22640 12320 ft 344 kts 80°
2026-04-26 20:05 52.27102 -1.18774 12970 ft 348 kts 81°
2026-04-26 20:05 52.27507 -1.14852 13647 ft 352 kts 81°
2026-04-26 20:05 52.27903 -1.10880 14308 ft 357 kts 81°
2026-04-26 20:06 52.28293 -1.06854 14944 ft 360 kts 82°
2026-04-26 20:06 52.28676 -1.02828 15568 ft 364 kts 82°
2026-04-26 20:06 52.29061 -0.98717 16186 ft 369 kts 82°
2026-04-26 20:06 52.29449 -0.94546 16846 ft 372 kts 82°
2026-04-26 20:07 52.29838 -0.90321 17486 ft 376 kts 82°
2026-04-26 20:07 52.30229 -0.86058 18103 ft 381 kts 82°
2026-04-26 20:07 52.30623 -0.81747 18693 ft 385 kts 82°
2026-04-26 20:07 52.31014 -0.77451 19221 ft 389 kts 82°
2026-04-26 20:08 52.31414 -0.73031 19777 ft 392 kts 82°
2026-04-26 20:08 52.31814 -0.68599 20311 ft 396 kts 82°
2026-04-26 20:08 52.32216 -0.64115 20848 ft 399 kts 82°
2026-04-26 20:08 52.32615 -0.59649 21366 ft 403 kts 82°
2026-04-26 20:09 52.33021 -0.55095 21894 ft 406 kts 82°
2026-04-26 20:09 52.33429 -0.50490 22407 ft 410 kts 82°
2026-04-26 20:09 52.33839 -0.45832 22915 ft 414 kts 82°
2026-04-26 20:09 52.34245 -0.41207 23411 ft 417 kts 82°
2026-04-26 20:10 52.34659 -0.36476 23887 ft 420 kts 82°
2026-04-26 20:10 52.35074 -0.31720 24307 ft 424 kts 82°
2026-04-26 20:10 52.35489 -0.26921 24719 ft 426 kts 82°
2026-04-26 20:10 52.35850 -0.22083 25120 ft 429 kts 87°
2026-04-26 20:11 52.35886 -0.17177 25518 ft 432 kts 92°
2026-04-26 20:11 52.35799 -0.12317 25908 ft 434 kts 93°
2026-04-26 20:11 52.35704 -0.07351 26310 ft 437 kts 92°
2026-04-26 20:12 52.35596 0.02543 27426 ft 433 kts 91°
2026-04-26 20:12 52.35560 0.07473 27939 ft 432 kts 91°
2026-04-26 20:12 52.35522 0.12396 28383 ft 433 kts 91°
2026-04-26 20:12 52.35481 0.17361 28549 ft 442 kts 91°
2026-04-26 20:13 52.35436 0.22464 28633 ft 452 kts 91°
2026-04-26 20:13 52.35337 0.32950 28806 ft 469 kts 91°
2026-04-26 20:14 52.35224 0.43749 28960 ft 485 kts 91°
2026-04-26 20:14 52.35163 0.49325 29074 ft 491 kts 91°
2026-04-26 20:14 52.35098 0.54938 29323 ft 494 kts 91°
2026-04-26 20:14 52.35031 0.60554 29726 ft 493 kts 91°
2026-04-26 20:15 52.34961 0.66087 30174 ft 492 kts 91°
2026-04-26 20:15 52.34890 0.71687 30562 ft 491 kts 91°
2026-04-26 20:15 52.34815 0.77265 30904 ft 490 kts 91°
2026-04-26 20:15 52.34738 0.82845 31247 ft 489 kts 91°
2026-04-26 20:16 52.34657 0.88425 31309 ft 493 kts 91°
2026-04-26 20:16 52.34489 0.99671 31326 ft 494 kts 91°
2026-04-26 20:17 52.34311 1.10898 31334 ft 499 kts 91°
2026-04-26 20:17 52.34120 1.22260 31330 ft 499 kts 91°
2026-04-26 20:18 52.33918 1.33650 31328 ft 499 kts 91°
2026-04-26 20:18 52.33708 1.44949 31331 ft 499 kts 92°
2026-04-26 20:19 52.33483 1.56306 31334 ft 499 kts 92°
2026-04-26 20:19 52.33239 1.67659 31329 ft 498 kts 92°
2026-04-26 20:20 52.32989 1.78912 31334 ft 497 kts 92°
2026-04-26 20:20 52.32726 1.90247 31334 ft 497 kts 92°
2026-04-26 20:21 52.32448 2.01482 31335 ft 497 kts 92°
2026-04-26 20:21 52.32156 2.12794 31334 ft 497 kts 92°
2026-04-26 20:22 52.31856 2.24089 31333 ft 497 kts 92°
2026-04-26 20:22 52.31548 2.35308 31334 ft 497 kts 92°
2026-04-26 20:23 52.31228 2.46591 31336 ft 497 kts 92°
2026-04-26 20:23 52.30897 2.57906 31329 ft 497 kts 92°
2026-04-26 20:24 52.31413 2.69134 31324 ft 495 kts 75°
2026-04-26 20:24 52.33354 2.79859 31332 ft 495 kts 71°
2026-04-26 20:25 52.35343 2.90644 31333 ft 495 kts 72°
2026-04-26 20:25 52.37255 3.01481 31333 ft 495 kts 72°
2026-04-26 20:26 52.39145 3.12342 31328 ft 495 kts 72°
2026-04-26 20:26 52.41445 3.22891 31337 ft 493 kts 63°
2026-04-26 20:27 52.44370 3.33056 31329 ft 493 kts 62°
2026-04-26 20:27 52.47308 3.43147 31332 ft 493 kts 63°
2026-04-26 20:28 52.50206 3.53357 31338 ft 494 kts 63°
2026-04-26 20:28 52.53062 3.63606 31333 ft 494 kts 63°
2026-04-26 20:29 52.55915 3.73928 31335 ft 494 kts 63°
2026-04-26 20:29 52.58733 3.84164 31334 ft 494 kts 63°
2026-04-26 20:30 52.61562 3.94474 31333 ft 494 kts 63°
2026-04-26 20:30 52.64384 4.04799 31338 ft 494 kts 63°
2026-04-26 20:31 52.67198 4.15143 31336 ft 494 kts 63°
2026-04-26 20:31 52.69985 4.25434 31343 ft 494 kts 63°
2026-04-26 20:32 52.72780 4.35799 31339 ft 495 kts 63°
2026-04-26 20:32 52.75572 4.46199 31331 ft 495 kts 63°
2026-04-26 20:33 52.78354 4.56615 31332 ft 495 kts 63°
2026-04-26 20:33 52.81133 4.67061 31335 ft 495 kts 63°
2026-04-26 20:34 52.83883 4.77451 31349 ft 495 kts 63°
2026-04-26 20:34 52.86640 4.87910 31347 ft 496 kts 63°
2026-04-26 20:35 52.89388 4.98396 31345 ft 496 kts 64°
2026-04-26 20:35 52.92107 5.08831 31360 ft 496 kts 63°
2026-04-26 20:36 52.94601 5.19563 31345 ft 498 kts 68°
2026-04-26 20:36 52.96735 5.30434 31342 ft 498 kts 69°
2026-04-26 20:37 52.98862 5.41394 31346 ft 498 kts 68°
2026-04-26 20:37 53.01021 5.52278 31343 ft 498 kts 68°
2026-04-26 20:38 53.03207 5.63201 31361 ft 497 kts 68°
2026-04-26 20:38 53.05384 5.74106 31343 ft 496 kts 68°
2026-04-26 20:39 53.07535 5.84954 31346 ft 496 kts 68°
2026-04-26 20:39 53.09684 5.95858 31345 ft 495 kts 68°
2026-04-26 20:40 53.11817 6.06764 31351 ft 495 kts 68°
2026-04-26 20:40 53.13936 6.17685 31354 ft 494 kts 67°
2026-04-26 20:41 53.16203 6.28407 31338 ft 491 kts 64°
2026-04-26 20:41 53.18279 6.37298 31342 ft 490 kts 64°
2026-04-26 20:42 53.20743 6.47851 31341 ft 490 kts 64°
2026-04-26 20:42 53.23164 6.58443 31348 ft 490 kts 64°
2026-04-26 20:43 53.25569 6.69131 31364 ft 490 kts 64°
2026-04-26 20:43 53.27937 6.79735 31345 ft 489 kts 64°
2026-04-26 20:44 53.30313 6.90421 31340 ft 488 kts 64°
2026-04-26 20:44 53.32657 7.01010 31346 ft 488 kts 64°
2026-04-26 20:45 53.35005 7.11663 31346 ft 488 kts 64°
2026-04-26 20:45 53.37344 7.22339 31373 ft 487 kts 64°
2026-04-26 20:46 53.39663 7.32970 31145 ft 488 kts 64°
2026-04-26 20:46 53.40826 7.38323 30690 ft 489 kts 64°
2026-04-26 20:46 53.41990 7.43696 30137 ft 488 kts 65°
2026-04-26 20:46 53.43145 7.49044 29489 ft 485 kts 65°
2026-04-26 20:47 53.44286 7.54350 28827 ft 481 kts 65°
2026-04-26 20:47 53.45035 7.57838 28417 ft 478 kts 65°
2026-04-26 20:47 53.46506 7.64711 27595 ft 464 kts 65°
2026-04-26 20:47 53.47582 7.69762 27016 ft 453 kts 65°
2026-04-26 20:48 53.48632 7.74693 26452 ft 443 kts 65°
2026-04-26 20:48 53.49657 7.79510 25932 ft 434 kts 66°
2026-04-26 20:48 53.50664 7.84252 25382 ft 424 kts 66°
2026-04-26 20:48 53.51634 7.88831 24853 ft 416 kts 66°
2026-04-26 20:49 53.52598 7.93385 24332 ft 408 kts 66°
2026-04-26 20:49 53.53538 7.97840 23829 ft 400 kts 66°
2026-04-26 20:49 53.54460 8.02217 23272 ft 392 kts 66°
2026-04-26 20:49 53.55362 8.06508 22725 ft 385 kts 66°
2026-04-26 20:50 53.56237 8.10683 22193 ft 379 kts 66°
2026-04-26 20:50 53.57104 8.14827 21693 ft 373 kts 66°
2026-04-26 20:50 53.57956 8.18909 21224 ft 366 kts 66°
2026-04-26 20:50 53.58790 8.22915 20784 ft 359 kts 66°
2026-04-26 20:51 53.59610 8.26857 20369 ft 352 kts 66°
2026-04-26 20:51 53.60411 8.30718 19978 ft 346 kts 66°
2026-04-26 20:51 53.61189 8.34473 19617 ft 340 kts 66°
2026-04-26 20:51 53.61959 8.38201 19251 ft 334 kts 66°
2026-04-26 20:52 53.62714 8.41861 18890 ft 328 kts 67°
2026-04-26 20:52 53.63458 8.45471 18516 ft 323 kts 67°
2026-04-26 20:52 53.64188 8.49024 18110 ft 318 kts 67°
2026-04-26 20:52 53.64897 8.52476 17733 ft 312 kts 67°
2026-04-26 20:53 53.65599 8.55902 17380 ft 307 kts 67°
2026-04-26 20:53 53.66288 8.59275 17031 ft 302 kts 67°
2026-04-26 20:53 53.66966 8.62594 16694 ft 297 kts 67°
2026-04-26 20:53 53.67636 8.65879 16360 ft 295 kts 67°
2026-04-26 20:54 53.68301 8.69145 16045 ft 292 kts 67°
2026-04-26 20:54 53.68961 8.72392 15740 ft 290 kts 67°
2026-04-26 20:54 53.69616 8.75617 15443 ft 289 kts 67°
2026-04-26 20:54 53.70261 8.78799 15157 ft 291 kts 67°
2026-04-26 20:55 53.70919 8.82050 14882 ft 294 kts 67°
2026-04-26 20:55 53.71581 8.85324 14601 ft 294 kts 67°
2026-04-26 20:55 53.72241 8.88600 14313 ft 294 kts 67°
2026-04-26 20:55 53.72896 8.91863 14020 ft 293 kts 67°
2026-04-26 20:56 53.73542 8.95081 13702 ft 292 kts 67°
2026-04-26 20:56 53.74191 8.98319 13386 ft 291 kts 67°
2026-04-26 20:56 53.74836 9.01545 13061 ft 288 kts 67°
2026-04-26 20:56 53.75474 9.04742 12748 ft 283 kts 67°
2026-04-26 20:57 53.76098 9.07874 12431 ft 278 kts 67°
2026-04-26 20:57 53.76711 9.10954 12117 ft 274 kts 66°
2026-04-26 20:57 53.77309 9.13960 11818 ft 272 kts 66°
2026-04-26 20:57 53.77910 9.16987 11517 ft 269 kts 66°
2026-04-26 20:58 53.78504 9.19981 11350 ft 266 kts 66°
2026-04-26 20:58 53.79094 9.22953 11318 ft 268 kts 66°
2026-04-26 20:58 53.79684 9.25929 11325 ft 271 kts 66°
2026-04-26 20:58 53.80287 9.28985 11309 ft 272 kts 66°
2026-04-26 20:59 53.80885 9.32020 11297 ft 271 kts 66°
2026-04-26 20:59 53.81436 9.35043 11288 ft 273 kts 76°
2026-04-26 20:59 53.81337 9.38258 11314 ft 279 kts 105°
2026-04-26 20:59 53.80431 9.41160 11305 ft 282 kts 129°
2026-04-26 21:00 53.78994 9.43441 11319 ft 284 kts 143°
2026-04-26 21:00 53.77208 9.44813 11305 ft 283 kts 173°
2026-04-26 21:00 53.75266 9.44711 11313 ft 278 kts 198°
2026-04-26 21:00 53.73508 9.43452 11318 ft 274 kts 215°
2026-04-26 21:01 53.71885 9.41826 11315 ft 276 kts 215°
2026-04-26 21:01 53.70228 9.40165 11309 ft 278 kts 215°
2026-04-26 21:01 53.68555 9.38513 11307 ft 278 kts 215°
2026-04-26 21:01 53.66945 9.36726 11286 ft 272 kts 230°
2026-04-26 21:02 53.65962 9.34135 11313 ft 258 kts 257°
2026-04-26 21:02 53.65738 9.31193 11323 ft 252 kts 279°
2026-04-26 21:02 53.66193 9.28366 11306 ft 249 kts 300°
2026-04-26 21:02 53.67229 9.26137 11294 ft 242 kts 322°
2026-04-26 21:03 53.68760 9.24961 11327 ft 253 kts 350°
2026-04-26 21:03 53.70641 9.25191 11127 ft 293 kts 15°
2026-04-26 21:03 53.72463 9.26941 10895 ft 310 kts 39°
2026-04-26 21:03 53.73747 9.29918 10655 ft 320 kts 63°
2026-04-26 21:04 53.74331 9.33579 10422 ft 324 kts 76°
2026-04-26 21:04 53.74667 9.37307 10182 ft 324 kts 78°
2026-04-26 21:04 53.74968 9.41094 9909 ft 324 kts 78°
2026-04-26 21:04 53.75264 9.44875 9615 ft 323 kts 79°
2026-04-26 21:05 53.75552 9.48563 9320 ft 318 kts 79°
2026-04-26 21:05 53.75843 9.52250 9025 ft 314 kts 79°
2026-04-26 21:05 53.76133 9.55894 8736 ft 311 kts 79°
2026-04-26 21:05 53.76426 9.59517 8451 ft 309 kts 79°
2026-04-26 21:06 53.76722 9.63120 8168 ft 308 kts 79°
2026-04-26 21:06 53.77017 9.66653 7892 ft 306 kts 79°
2026-04-26 21:06 53.77319 9.70215 7618 ft 305 kts 79°
2026-04-26 21:06 53.77625 9.73771 7344 ft 304 kts 79°
2026-04-26 21:07 53.77935 9.77310 7078 ft 303 kts 79°
2026-04-26 21:07 53.78246 9.80796 6766 ft 304 kts 79°
2026-04-26 21:07 53.78570 9.84344 6390 ft 306 kts 79°
2026-04-26 21:07 53.78903 9.87899 6002 ft 306 kts 79°
2026-04-26 21:08 53.79248 9.91464 5618 ft 306 kts 79°
2026-04-26 21:08 53.79602 9.95006 5269 ft 304 kts 79°
2026-04-26 21:08 53.79963 9.98526 4930 ft 302 kts 79°
2026-04-26 21:08 53.80327 10.01980 4597 ft 300 kts 79°
2026-04-26 21:09 53.80700 10.05427 4306 ft 297 kts 79°
2026-04-26 21:09 53.81077 10.08850 4016 ft 294 kts 79°
2026-04-26 21:09 53.81458 10.12239 3718 ft 291 kts 79°
2026-04-26 21:09 53.81843 10.15617 3459 ft 290 kts 79°
2026-04-26 21:10 53.82218 10.18915 3171 ft 287 kts 79°
2026-04-26 21:10 53.82572 10.22193 3000 ft 274 kts 84°
2026-04-26 21:10 53.82359 10.25276 2969 ft 256 kts 114°
2026-04-26 21:10 53.81359 10.27578 2974 ft 236 kts 146°
2026-04-26 21:11 53.79893 10.28568 2989 ft 224 kts 179°
2026-04-26 21:11 53.78416 10.28144 3000 ft 219 kts 201°
2026-04-26 21:11 53.77017 10.27129 2981 ft 218 kts 216°
2026-04-26 21:11 53.76037 10.25246 2998 ft 213 kts 237°
2026-04-26 21:12 53.75134 10.23237 2992 ft 214 kts 231°
2026-04-26 21:12 53.74164 10.21310 2985 ft 215 kts 231°
2026-04-26 21:12 53.73197 10.19380 2976 ft 216 kts 231°
2026-04-26 21:12 53.72234 10.17439 2772 ft 219 kts 231°
2026-04-26 21:13 53.71255 10.15459 2472 ft 220 kts 231°
2026-04-26 21:13 53.70299 10.13529 2179 ft 206 kts 232°
2026-04-26 21:13 53.69414 10.11740 1895 ft 191 kts 232°
2026-04-26 21:13 53.68580 10.10051 1632 ft 182 kts 232°
2026-04-26 21:14 53.67781 10.08435 1400 ft 175 kts 232°
2026-04-26 21:14 53.67049 10.06953 1159 ft 159 kts 233°
2026-04-26 21:14 53.66366 10.05569 924 ft 150 kts 233°
2026-04-26 21:14 53.65709 10.04230 743 ft 146 kts 233°
2026-04-26 21:15 53.65052 10.02896 554 ft 148 kts 233°
2026-04-26 21:15 53.64384 10.01544 320 ft 151 kts 232°
2026-04-26 21:15 53.63725 10.00223 142 ft 147 kts 233°
2026-04-26 21:15 53.63086 9.98919 50 ft 134 kts 230°
2026-04-26 21:16 53.62585 9.97907 47 ft 90 kts 230°
2026-04-26 21:16 53.62319 9.97396 48 ft 34 kts 208°
2026-04-26 21:16 53.62180 9.97499 49 ft 22 kts 103°
2026-04-26 21:16 53.62230 9.97686 49 ft 17 kts 50°
2026-04-26 21:17 53.62302 9.97831 49 ft 16 kts 50°
2026-04-26 21:17 53.62372 9.97974 49 ft 15 kts 51°
2026-04-26 21:17 53.62443 9.98103 49 ft 15 kts 43°
2026-04-26 21:17 53.62520 9.98212 49 ft 14 kts 44°
2026-04-26 21:18 53.62582 9.98336 49 ft 13 kts 50°
2026-04-26 21:18 53.62641 9.98454 49 ft 13 kts 50°
2026-04-26 21:18 53.62700 9.98572 49 ft 15 kts 50°
2026-04-26 21:18 53.62778 9.98731 49 ft 19 kts 50°
2026-04-26 21:19 53.62860 9.98897 49 ft 18 kts 50°
2026-04-26 21:19 53.62939 9.99057 49 ft 18 kts 50°
2026-04-26 21:19 53.63016 9.99213 49 ft 17 kts 50°
2026-04-26 21:19 53.63083 9.99363 49 ft 15 kts 54°
2026-04-26 21:20 53.63140 9.99501 49 ft 14 kts 53°
2026-04-26 21:20 53.63199 9.99629 49 ft 14 kts 48°
2026-04-26 21:20 53.63264 9.99739 49 ft 13 kts 46°
2026-04-26 21:20 53.63323 9.99852 49 ft 13 kts 50°
2026-04-26 21:21 53.63377 9.99963 49 ft 12 kts 49°
2026-04-26 21:21 53.63428 10.00066 50 ft 9 kts 50°
2026-04-26 21:21 53.63448 10.00127 50 ft 6 kts 89°
2026-04-26 21:21 53.63446 10.00195 50 ft 6 kts 88°
2026-04-26 21:22 53.63448 10.00257 50 ft 6 kts 88°
2026-04-26 21:22 53.63449 10.00289 50 ft 0 kts 88°
2026-04-26 21:22 53.63449 10.00303 50 ft 1 kts 88°
2026-04-26 21:23 53.63449 10.00309 50 ft 0 kts 88°